[[{"header":{"parameterUnit":"m.s-1","parameterCategory":1,"la1":30.2991,"la2":30.254,"lo1":-89.0895,"lo2":-89.0444,"dy":0.0017,"dx":0.0017,"nx":28,"ny":28,"refTime":"2023-09-14T09:00:00:Z","depth":0,"parameterNumber":2,"parameterNumberName":"U-component_of_WINDS"},"data":[0,0,0,0,0,0,0,0,0,0,0,0,0,0,0,0,0,0,0,0,0,0,0,0,0,0,0,0,0,0,0,0,0,0,0,0,0,0,0,0,0,0,0,0,0,0,0,0,0,0,0,0,0,0,0,0,0,0,-1.4431,-1.443,0,-1.4342,-1.4341,-1.434,-1.4199,-1.4197,-1.4194,-1.4192,-1.4105,-1.4105,-1.4105,0,0,0,0,0,0,0,0,0,0,0,0,0,-1.4484,-1.4483,-1.4432,-1.443,-1.4429,-1.4342,-1.4341,-1.434,-1.42,-1.4197,-1.4194,-1.4191,-1.4105,-1.4105,-1.4105,0,0,0,0,0,0,0,0,0,0,0,0,0,-1.4435,-1.4483,-1.4432,-1.4349,-1.434,-1.4342,-1.4341,-1.4339,-1.42,-1.4197,-1.4193,-1.4189,-1.4105,-1.4105,-1.4105,-1.4182,0,0,-1.4105,-1.4105,0,0,0,0,0,0,0,0,-1.4438,-1.4433,-1.4362,-1.4354,-1.4345,-1.4278,-1.4327,-1.4287,-1.4201,-1.4254,-1.4192,-1.4187,-1.4166,-1.4161,-1.4152,-1.4178,-1.4174,-1.4105,-1.4105,-1.4105,-1.4105,0,0,0,0,0,0,0,-1.4441,-1.4436,-1.4396,-1.4361,-1.4351,-1.4317,-1.4306,-1.4319,-1.4233,-1.4249,-1.4238,-1.423,-1.416,-1.4153,-1.4149,-1.4173,-1.4105,-1.4105,-1.4105,-1.4105,-1.4256,-1.426,0,0,0,0,0,0,-1.4456,-1.444,-1.4399,-1.4393,-1.4383,-1.4319,-1.4307,-1.4303,-1.4232,-1.4217,-1.4233,-1.4223,-1.4154,-1.4149,-1.4146,-1.423,-1.4105,-1.4105,-1.4105,-1.4252,-1.4257,-1.4261,0,0,0,0,0,0,-1.4458,-1.4454,-1.4403,-1.4414,-1.4404,-1.4322,-1.432,-1.4304,-1.4296,-1.422,-1.4204,-1.4241,-1.4151,-1.4146,-1.4173,-1.4225,-1.4105,-1.4106,-1.4247,-1.4254,-1.4259,-1.4402,0,0,0,0,0,0,-1.446,-1.4455,-1.4483,-1.4415,-1.4404,-1.4432,-1.4323,-1.4305,-1.4296,-1.4282,-1.4223,-1.4209,-1.4148,-1.4174,-1.4174,-1.4223,-1.4106,-1.4242,-1.425,-1.4257,-1.4392,-1.4412,-1.4429,0,0,0,0,0,-1.4462,-1.4528,-1.4486,-1.4482,-1.4438,-1.4435,-1.4429,-1.4355,-1.43,-1.4328,-1.4279,-1.4211,-1.422,-1.4178,-1.4176,-1.4227,-1.4239,-1.4248,-1.4257,-1.4384,-1.4408,-1.4428,0,0,0,0,0,0,-1.4607,-1.4518,-1.447,-1.4515,-1.4484,-1.4411,-1.4444,-1.4383,-1.4367,-1.4356,-1.4266,-1.4254,-1.4293,-1.4263,-1.4218,-1.4297,-1.4219,-1.4228,-1.4316,-1.4338,-1.4356,-1.4363,-1.4106,0,0,0,0,0,-1.4644,-1.4648,-1.457,-1.4618,-1.4605,-1.4528,-1.4524,-1.4469,-1.4433,-1.442,-1.4372,-1.4341,-1.4336,-1.4335,-1.4327,-1.4386,-1.4371,-1.442,-1.4439,-1.4454,-1.4463,-1.4491,-1.4512,-1.429,-1.429,-1.429,0,0,-1.4721,-1.4673,-1.4681,-1.4646,-1.4615,-1.4622,-1.4517,-1.4529,-1.4534,-1.4422,-1.4444,-1.4409,-1.4368,-1.4412,-1.4429,-1.4388,-1.4521,-1.4465,-1.4478,-1.4479,-1.4503,-1.4524,-1.4542,-1.4296,-1.4295,-1.4294,0,0,-1.4864,-1.4828,-1.4864,-1.4834,-1.4787,-1.4735,-1.4744,-1.468,-1.4652,-1.4673,-1.4588,-1.4593,-1.4587,-1.4561,-1.4547,-1.4679,-1.4616,-1.4679,-1.4775,-1.4803,-1.4821,-1.4836,-1.4883,-1.4901,-1.4688,-1.4688,-1.4688,0,-1.4966,-1.4972,-1.489,-1.4907,-1.4894,-1.479,-1.4826,-1.4802,-1.4756,-1.475,-1.4703,-1.4692,-1.4658,-1.4693,-1.4725,-1.4718,-1.4725,-1.4686,-1.4825,-1.4839,-1.4852,-1.4896,-1.4913,-1.4696,-1.4695,-1.4694,-1.4694,0,-1.51,-1.5105,-1.5139,-1.5095,-1.5086,-1.5113,-1.5035,-1.5036,-1.4982,-1.4935,-1.4957,-1.4912,-1.4892,-1.4896,-1.4845,-1.4924,-1.49,-1.4841,-1.476,-1.4882,-1.4922,-1.4938,-1.4707,-1.4705,-1.4702,-1.47,0,0,-1.5334,-1.5242,-1.5256,-1.5234,-1.5174,-1.5178,-1.5199,-1.5177,-1.518,-1.5151,-1.5167,-1.5163,-1.5107,-1.5092,-1.5036,-1.5061,-1.5168,-1.4998,-1.4996,-1.5032,-1.5253,-1.5298,-1.5319,-1.5125,-1.5128,-1.513,-1.5256,0,-1.5465,-1.5495,-1.5421,-1.547,-1.5474,-1.5375,-1.5393,-1.5359,-1.5316,-1.5313,-1.5265,-1.5264,-1.519,-1.518,-1.52,-1.5151,-1.5211,-1.5141,-1.514,-1.5141,-1.5154,-1.5339,-1.5387,-1.5508,-1.5271,-1.5273,-1.5275,0,-1.5623,-1.5601,-1.565,-1.5585,-1.5584,-1.5602,-1.5576,-1.5575,-1.5534,-1.55,-1.5482,-1.5416,-1.5432,-1.5354,-1.5376,-1.533,-1.5325,-1.5301,-1.5304,-1.5302,-1.5216,-1.5342,-1.5545,-1.5563,-1.5299,-1.5297,-1.5295,0,-1.5789,-1.5771,-1.5797,-1.5782,-1.5708,-1.5723,-1.5693,-1.5647,-1.5639,-1.5616,-1.561,-1.559,-1.558,-1.5566,-1.5497,-1.5447,-1.5528,-1.5444,-1.5501,-1.5503,-1.5523,-1.5523,-1.5728,-1.552,-1.5519,-1.5519,-1.5519,0,-1.5944,-1.5978,-1.587,-1.5887,-1.5922,-1.5836,-1.5873,-1.5834,-1.5794,-1.5802,-1.5715,-1.5724,-1.5632,-1.5631,-1.5577,-1.5603,-1.5599,-1.5573,-1.5558,-1.5581,-1.5584,-1.5577,-1.5567,-1.5524,-1.5523,-1.5522,-1.5521,0,-1.6136,-1.6065,-1.6087,-1.6014,-1.5997,-1.6026,-1.5964,-1.5976,-1.5926,-1.5936,-1.5934,-1.5856,-1.585,-1.5779,-1.5759,-1.5722,-1.577,-1.5739,-1.5784,-1.5774,-1.5835,-1.583,-1.6043,-1.6066,-1.5843,-1.5846,-1.5847,0,-1.624,-1.6263,-1.6192,-1.619,-1.6163,-1.6162,-1.6152,-1.6068,-1.6061,-1.6015,-1.6034,-1.602,-1.6005,-1.6001,-1.5943,-1.5926,-1.5895,-1.597,-1.5892,-1.5913,-1.5896,-1.5896,-1.5897,-1.5988,-1.599,-1.5993,-1.5995,0,-1.6432,-1.6395,-1.6383,-1.636,-1.635,-1.6327,-1.6299,-1.6303,-1.6211,-1.6208,-1.6199,-1.6188,-1.6165,-1.6153,-1.6126,-1.6096,-1.6031,-1.6019,-1.6032,-1.6056,-1.608,-1.6068,-1.5829,-1.6015,-1.6013,-1.6012,-1.6011,-1.601,-1.6582,-1.6598,-1.655,-1.654,-1.651,-1.6485,-1.6493,-1.6443,-1.6434,-1.6408,-1.6359,-1.6359,-1.6316,-1.6272,-1.6247,-1.6246,-1.6207,-1.6225,-1.6229,-1.6235,-1.6247,-1.608,-1.624,-1.624,-1.6239,-1.6239,-1.6238,0,-1.677,-1.6734,-1.6725,-1.6688,-1.668,-1.6616,-1.6582,-1.658,-1.658,-1.6544,-1.653,-1.6521,-1.6508,-1.6449,-1.643,-1.644,-1.641,-1.6438,-1.6437,-1.6431,-1.6283,-1.6275,-1.6463,-1.6463,-1.6463,-1.6463,-1.6463,-1.6463,-1.6867,-1.689,-1.6847,-1.6854,-1.6817,-1.6815,-1.6801,-1.6778,-1.6749,-1.6741,-1.673,-1.669,-1.6645,-1.6622,-1.6607,-1.659,-1.6587,-1.6626,-1.6599,-1.6463,-1.6441,-1.6421,-1.6412,-1.6626,-1.6626,-1.6746,-1.6747,-1.6748]},{"header":{"parameterUnit":"m.s-1","parameterCategory":1,"la1":30.2991,"la2":30.254,"lo1":-89.0895,"lo2":-89.0444,"dy":0.0017,"dx":0.0017,"nx":28,"ny":28,"refTime":"2023-09-14T09:00:00:Z","depth":0,"parameterNumber":3,"parameterNumberName":"V-component_of_WINDS"},"data":[0,0,0,0,0,0,0,0,0,0,0,0,0,0,0,0,0,0,0,0,0,0,0,0,0,0,0,0,0,0,0,0,0,0,0,0,0,0,0,0,0,0,0,0,0,0,0,0,0,0,0,0,0,0,0,0,0,0,-1.8951,-1.8952,0,-1.903,-1.9031,-1.9032,-1.9065,-1.9065,-1.9064,-1.9064,-1.9141,-1.9143,-1.9145,0,0,0,0,0,0,0,0,0,0,0,0,0,-1.8824,-1.8826,-1.8951,-1.8952,-1.8953,-1.903,-1.9031,-1.9032,-1.9065,-1.9065,-1.9064,-1.9064,-1.914,-1.9143,-1.9146,0,0,0,0,0,0,0,0,0,0,0,0,0,-1.8888,-1.8827,-1.8951,-1.8979,-1.8982,-1.903,-1.9031,-1.9032,-1.9065,-1.9065,-1.9064,-1.9064,-1.914,-1.9143,-1.9146,-1.9171,0,0,-1.9156,-1.9158,0,0,0,0,0,0,0,0,-1.8885,-1.8893,-1.8974,-1.8977,-1.8981,-1.9037,-1.9015,-1.9079,-1.9065,-1.9033,-1.9064,-1.9064,-1.9107,-1.9113,-1.9128,-1.9175,-1.9178,-1.9156,-1.9158,-1.916,-1.9161,0,0,0,0,0,0,0,-1.888,-1.889,-1.8982,-1.8975,-1.8979,-1.8986,-1.8995,-1.9027,-1.907,-1.9036,-1.9039,-1.9048,-1.9108,-1.9125,-1.913,-1.9179,-1.9156,-1.9159,-1.9161,-1.9163,-1.9249,-1.925,0,0,0,0,0,0,-1.8872,-1.8886,-1.898,-1.8985,-1.8931,-1.8988,-1.8998,-1.9019,-1.907,-1.9077,-1.9048,-1.9049,-1.9119,-1.9126,-1.9133,-1.9165,-1.916,-1.9163,-1.9165,-1.9249,-1.9249,-1.925,0,0,0,0,0,0,-1.8869,-1.888,-1.8977,-1.8936,-1.8949,-1.8991,-1.9014,-1.9021,-1.9037,-1.9079,-1.9086,-1.9057,-1.9119,-1.9128,-1.9161,-1.9168,-1.9164,-1.9167,-1.9249,-1.9249,-1.9249,-1.923,0,0,0,0,0,0,-1.8865,-1.8879,-1.889,-1.8936,-1.8951,-1.9005,-1.9015,-1.9023,-1.9043,-1.9046,-1.9089,-1.9096,-1.912,-1.9156,-1.9165,-1.9172,-1.917,-1.9248,-1.9249,-1.9249,-1.923,-1.9229,-1.9229,0,0,0,0,0,-1.886,-1.888,-1.889,-1.8901,-1.8966,-1.9006,-1.9014,-1.9042,-1.9044,-1.9054,-1.9081,-1.9095,-1.9166,-1.9159,-1.9169,-1.9178,-1.9248,-1.9249,-1.9249,-1.923,-1.9229,-1.9229,0,0,0,0,0,0,-1.8832,-1.8887,-1.8898,-1.8934,-1.8965,-1.9011,-1.9025,-1.904,-1.907,-1.9071,-1.9103,-1.9113,-1.9143,-1.9164,-1.9156,-1.9204,-1.9208,-1.921,-1.919,-1.919,-1.9189,-1.9183,-1.9173,0,0,0,0,0,-1.883,-1.8859,-1.8905,-1.8932,-1.8947,-1.8983,-1.9002,-1.9021,-1.9053,-1.9066,-1.9095,-1.9126,-1.9155,-1.9173,-1.9202,-1.9233,-1.9242,-1.9244,-1.9243,-1.9243,-1.9244,-1.9261,-1.9262,-1.9252,-1.9252,-1.9252,0,0,-1.8826,-1.886,-1.8876,-1.8927,-1.8953,-1.8981,-1.8994,-1.9023,-1.9044,-1.907,-1.9104,-1.9126,-1.9162,-1.9194,-1.9209,-1.9212,-1.9249,-1.9244,-1.9243,-1.9245,-1.9262,-1.9263,-1.9264,-1.9253,-1.9253,-1.9252,0,0,-1.8833,-1.8862,-1.8887,-1.8914,-1.8954,-1.8978,-1.8984,-1.9027,-1.9044,-1.9078,-1.9098,-1.9122,-1.9172,-1.9197,-1.9216,-1.9231,-1.9245,-1.924,-1.9237,-1.9253,-1.9254,-1.9255,-1.926,-1.9262,-1.9241,-1.9241,-1.9241,0,-1.8823,-1.8868,-1.8898,-1.8927,-1.8948,-1.8974,-1.8999,-1.9023,-1.9069,-1.9083,-1.9086,-1.9148,-1.9174,-1.9212,-1.9216,-1.923,-1.9237,-1.9235,-1.9252,-1.9253,-1.9254,-1.9259,-1.9261,-1.924,-1.924,-1.9241,-1.9241,0,-1.8853,-1.8883,-1.8898,-1.8944,-1.8967,-1.8994,-1.9027,-1.9046,-1.9063,-1.9086,-1.912,-1.9152,-1.9188,-1.9198,-1.9214,-1.9238,-1.9238,-1.9246,-1.925,-1.9254,-1.9259,-1.9261,-1.9239,-1.9239,-1.924,-1.924,0,0,-1.8845,-1.8907,-1.8912,-1.8933,-1.8979,-1.9002,-1.9029,-1.9065,-1.9081,-1.9112,-1.9135,-1.9176,-1.9183,-1.9205,-1.9223,-1.9238,-1.9247,-1.9244,-1.9245,-1.9243,-1.9275,-1.9269,-1.9271,-1.9256,-1.9257,-1.9257,-1.9272,0,-1.8858,-1.8909,-1.8937,-1.8976,-1.9004,-1.9028,-1.9052,-1.9081,-1.9103,-1.9129,-1.9153,-1.9182,-1.9189,-1.9202,-1.9218,-1.9243,-1.9254,-1.9242,-1.9277,-1.9278,-1.9267,-1.9274,-1.9267,-1.9279,-1.9274,-1.9274,-1.9275,0,-1.888,-1.8912,-1.8954,-1.8996,-1.9009,-1.903,-1.9065,-1.9089,-1.9123,-1.9138,-1.9162,-1.918,-1.9208,-1.921,-1.9248,-1.924,-1.9255,-1.927,-1.9271,-1.9275,-1.9276,-1.9278,-1.9284,-1.9286,-1.9278,-1.9278,-1.9278,0,-1.887,-1.8923,-1.8955,-1.8972,-1.9022,-1.9036,-1.9057,-1.9091,-1.911,-1.9141,-1.9154,-1.9186,-1.9204,-1.9228,-1.9254,-1.9253,-1.9289,-1.9293,-1.9302,-1.9301,-1.9308,-1.9307,-1.9317,-1.9318,-1.9318,-1.9318,-1.9318,0,-1.8882,-1.8906,-1.8951,-1.8971,-1.8999,-1.903,-1.9056,-1.9078,-1.9108,-1.9131,-1.9154,-1.9175,-1.9209,-1.9234,-1.9254,-1.9282,-1.929,-1.9302,-1.9307,-1.93,-1.9299,-1.9311,-1.9311,-1.9319,-1.9319,-1.9318,-1.9318,0,-1.8875,-1.8906,-1.8943,-1.8987,-1.8999,-1.9017,-1.9054,-1.9074,-1.9097,-1.9126,-1.9134,-1.917,-1.9201,-1.923,-1.927,-1.9284,-1.9312,-1.9319,-1.9301,-1.9304,-1.931,-1.9309,-1.9328,-1.9332,-1.933,-1.933,-1.933,0,-1.8881,-1.89,-1.8947,-1.8965,-1.8986,-1.9015,-1.9035,-1.9066,-1.9086,-1.9125,-1.9139,-1.9172,-1.9199,-1.9247,-1.9275,-1.9306,-1.9314,-1.9318,-1.9318,-1.931,-1.9314,-1.9312,-1.9314,-1.9317,-1.9317,-1.9317,-1.9317,0,-1.8887,-1.8902,-1.8931,-1.8966,-1.899,-1.9018,-1.9047,-1.906,-1.9096,-1.9117,-1.915,-1.9171,-1.9213,-1.9244,-1.9278,-1.9298,-1.9313,-1.9317,-1.932,-1.9313,-1.9302,-1.9308,-1.9299,-1.9316,-1.9316,-1.9316,-1.9316,-1.9316,-1.8887,-1.8905,-1.8941,-1.8973,-1.8998,-1.9025,-1.9045,-1.9071,-1.9098,-1.9136,-1.9151,-1.9184,-1.9216,-1.9263,-1.9283,-1.9308,-1.9311,-1.9316,-1.9318,-1.9318,-1.9317,-1.9298,-1.9314,-1.9314,-1.9314,-1.9314,-1.9314,0,-1.8894,-1.8918,-1.8947,-1.8988,-1.9013,-1.9026,-1.9058,-1.9078,-1.9106,-1.9135,-1.9162,-1.9199,-1.9229,-1.926,-1.9292,-1.9306,-1.9314,-1.9313,-1.9313,-1.9317,-1.9312,-1.9306,-1.9307,-1.9307,-1.9307,-1.9307,-1.9307,-1.9307,-1.8901,-1.8933,-1.8951,-1.8995,-1.9019,-1.9052,-1.9069,-1.9093,-1.9117,-1.9157,-1.9183,-1.9203,-1.9233,-1.9267,-1.9295,-1.9304,-1.9314,-1.9312,-1.9322,-1.9317,-1.9317,-1.9318,-1.9312,-1.9314,-1.9314,-1.9325,-1.9325,-1.9325]}]]